DIPPU EDXF-EKTS

Flight info

Callsign DIPPU
Flight time N/A
Altitude 8500
Route EDXF EKEB EKTS
Aircraft AEST/L-S/S

Departure

Time N/A
Airport Flensburg-Schäferhaus Airport (EDXF)

Arrival

Time 2026-04-21 19:52
Airport Thisted Airport (EKTS)
Time Latitude Longitude Altitude Speed Heading
2026-04-21 19:18 55.23448 8.87977 8971 ft 231 kts 334°
2026-04-21 19:19 55.24808 8.86468 8835 ft 232 kts 334°
2026-04-21 19:19 55.26171 8.84956 8714 ft 232 kts 334°
2026-04-21 19:19 55.27540 8.83440 8585 ft 233 kts 334°
2026-04-21 19:19 55.28925 8.81913 8359 ft 237 kts 334°
2026-04-21 19:20 55.30311 8.80383 8122 ft 240 kts 334°
2026-04-21 19:20 55.31737 8.78810 7806 ft 245 kts 333°
2026-04-21 19:20 55.33190 8.77205 7474 ft 248 kts 333°
2026-04-21 19:20 55.34649 8.75584 7199 ft 248 kts 333°
2026-04-21 19:21 55.36111 8.73956 6923 ft 248 kts 333°
2026-04-21 19:21 55.37557 8.72341 6535 ft 245 kts 333°
2026-04-21 19:21 55.38978 8.70749 6072 ft 240 kts 333°
2026-04-21 19:21 55.40362 8.69190 5627 ft 231 kts 333°
2026-04-21 19:22 55.41684 8.67692 5183 ft 222 kts 333°
2026-04-21 19:22 55.42957 8.66252 4724 ft 220 kts 333°
2026-04-21 19:22 55.44281 8.64775 4410 ft 232 kts 333°
2026-04-21 19:22 55.45663 8.63254 4277 ft 234 kts 333°
2026-04-21 19:23 55.47021 8.61745 4335 ft 228 kts 333°
2026-04-21 19:23 55.48348 8.60254 4378 ft 225 kts 333°
2026-04-21 19:23 55.49665 8.58803 4393 ft 222 kts 333°
2026-04-21 19:23 55.50981 8.57411 4395 ft 222 kts 336°
2026-04-21 19:24 55.52420 8.56424 4391 ft 220 kts 350°
2026-04-21 19:24 55.53920 8.55961 4386 ft 217 kts 358°
2026-04-21 19:24 55.55421 8.55789 4370 ft 215 kts
2026-04-21 19:24 55.56913 8.55823 4371 ft 214 kts
2026-04-21 19:25 55.58393 8.55981 4371 ft 213 kts
2026-04-21 19:25 55.59866 8.56184 4372 ft 212 kts
2026-04-21 19:25 55.61338 8.56413 4373 ft 212 kts
2026-04-21 19:25 55.62807 8.56621 4375 ft 212 kts
2026-04-21 19:26 55.64274 8.56802 4376 ft 212 kts
2026-04-21 19:26 55.65728 8.56975 4375 ft 212 kts
2026-04-21 19:26 55.67199 8.57142 4375 ft 212 kts
2026-04-21 19:26 55.68673 8.57302 4380 ft 212 kts
2026-04-21 19:27 55.70149 8.57459 4379 ft 212 kts
2026-04-21 19:27 55.71626 8.57612 4379 ft 212 kts
2026-04-21 19:27 55.73099 8.57758 4378 ft 212 kts
2026-04-21 19:27 55.74575 8.57901 4381 ft 212 kts
2026-04-21 19:28 55.76044 8.58039 4382 ft 212 kts
2026-04-21 19:28 55.77517 8.58177 4382 ft 212 kts
2026-04-21 19:28 55.78990 8.58314 4381 ft 212 kts
2026-04-21 19:28 55.80448 8.58450 4383 ft 212 kts
2026-04-21 19:29 55.81939 8.58586 4384 ft 212 kts
2026-04-21 19:29 55.83397 8.58720 4383 ft 212 kts
2026-04-21 19:29 55.84870 8.58855 4383 ft 212 kts
2026-04-21 19:29 55.86342 8.58992 4383 ft 212 kts
2026-04-21 19:30 55.87816 8.59130 4382 ft 212 kts
2026-04-21 19:30 55.89289 8.59266 4382 ft 212 kts
2026-04-21 19:30 55.90761 8.59402 4382 ft 212 kts
2026-04-21 19:30 55.92233 8.59539 4383 ft 212 kts
2026-04-21 19:31 55.93704 8.59678 4383 ft 212 kts
2026-04-21 19:31 55.95175 8.59816 4420 ft 208 kts
2026-04-21 19:31 55.96562 8.59934 4843 ft 191 kts
2026-04-21 19:31 55.97831 8.60029 5319 ft 176 kts
2026-04-21 19:32 55.99023 8.60115 5716 ft 168 kts
2026-04-21 19:32 56.00173 8.60202 6089 ft 163 kts
2026-04-21 19:32 56.01299 8.60295 6437 ft 161 kts
2026-04-21 19:32 56.02406 8.60388 6787 ft 158 kts
2026-04-21 19:33 56.03132 8.60450 6999 ft 157 kts
2026-04-21 19:33 56.04585 8.60587 7404 ft 155 kts
2026-04-21 19:33 56.05647 8.60687 7704 ft 154 kts 10°
2026-04-21 19:33 56.06727 8.60790 8001 ft 153 kts 10°
2026-04-21 19:34 56.07773 8.60889 8278 ft 152 kts 10°
2026-04-21 19:34 56.08825 8.60988 8565 ft 151 kts 10°
2026-04-21 19:34 56.09870 8.61087 8843 ft 150 kts 11°
2026-04-21 19:34 56.10918 8.61190 9057 ft 154 kts 11°
2026-04-21 19:35 56.12040 8.61319 9076 ft 170 kts 11°
2026-04-21 19:35 56.14580 8.61657 8968 ft 193 kts 10°
2026-04-21 19:35 56.15943 8.61827 8896 ft 199 kts
2026-04-21 19:36 56.17332 8.61978 8930 ft 201 kts
2026-04-21 19:36 56.18733 8.62110 8934 ft 203 kts
2026-04-21 19:36 56.20152 8.62231 8918 ft 205 kts
2026-04-21 19:36 56.21578 8.62345 8930 ft 205 kts
2026-04-21 19:37 56.23010 8.62457 8933 ft 206 kts
2026-04-21 19:37 56.24441 8.62573 8932 ft 206 kts
2026-04-21 19:37 56.25875 8.62696 8933 ft 206 kts
2026-04-21 19:37 56.27315 8.62825 8931 ft 207 kts
2026-04-21 19:38 56.28751 8.62956 8925 ft 206 kts
2026-04-21 19:38 56.30184 8.63091 8932 ft 206 kts
2026-04-21 19:38 56.31134 8.63182 8932 ft 206 kts
2026-04-21 19:38 56.33051 8.63367 8929 ft 206 kts
2026-04-21 19:39 56.34471 8.63499 8925 ft 207 kts
2026-04-21 19:39 56.35912 8.63630 8934 ft 207 kts
2026-04-21 19:39 56.37355 8.63766 8933 ft 208 kts
2026-04-21 19:39 56.38802 8.63906 8934 ft 208 kts
2026-04-21 19:40 56.40244 8.64049 8932 ft 208 kts
2026-04-21 19:40 56.41690 8.64191 8935 ft 208 kts
2026-04-21 19:40 56.43136 8.64332 8893 ft 210 kts
2026-04-21 19:40 56.44614 8.64481 8754 ft 215 kts
2026-04-21 19:41 56.46121 8.64638 8575 ft 220 kts
2026-04-21 19:41 56.47661 8.64800 8379 ft 223 kts
2026-04-21 19:41 56.49217 8.64955 8216 ft 224 kts
2026-04-21 19:41 56.50778 8.65101 8070 ft 225 kts
2026-04-21 19:42 56.52339 8.65244 7926 ft 225 kts
2026-04-21 19:42 56.53903 8.65385 7787 ft 224 kts
2026-04-21 19:42 56.55460 8.65528 7641 ft 223 kts
2026-04-21 19:42 56.57012 8.65670 7476 ft 225 kts
2026-04-21 19:43 56.58565 8.65819 7254 ft 227 kts
2026-04-21 19:43 56.60150 8.65974 7028 ft 229 kts
2026-04-21 19:43 56.61747 8.66133 6811 ft 230 kts
2026-04-21 19:43 56.63345 8.66288 6532 ft 232 kts
2026-04-21 19:44 56.64991 8.66453 6115 ft 238 kts
2026-04-21 19:44 56.66646 8.66610 5792 ft 237 kts
2026-04-21 19:44 56.68285 8.66763 5505 ft 235 kts
2026-04-21 19:44 56.69892 8.66915 5245 ft 232 kts
2026-04-21 19:45 56.71496 8.67070 4968 ft 229 kts
2026-04-21 19:45 56.73075 8.67226 4839 ft 226 kts
2026-04-21 19:45 56.74645 8.67381 4720 ft 225 kts
2026-04-21 19:45 56.76212 8.67535 4601 ft 225 kts
2026-04-21 19:46 56.77778 8.67689 4462 ft 226 kts
2026-04-21 19:46 56.79349 8.67845 4328 ft 226 kts
2026-04-21 19:46 56.80929 8.68000 4169 ft 227 kts
2026-04-21 19:46 56.82494 8.68180 4050 ft 225 kts
2026-04-21 19:47 56.84052 8.68337 3957 ft 224 kts
2026-04-21 19:47 56.85608 8.68472 3854 ft 224 kts
2026-04-21 19:47 56.87165 8.68608 3750 ft 224 kts
2026-04-21 19:47 56.88722 8.68758 3664 ft 224 kts
2026-04-21 19:48 56.90259 8.68840 3555 ft 224 kts 358°
2026-04-21 19:48 56.91290 8.68421 3484 ft 227 kts 346°
2026-04-21 19:48 56.93279 8.67136 3335 ft 230 kts 343°
2026-04-21 19:48 56.94791 8.66201 3253 ft 229 kts 347°
2026-04-21 19:49 56.96334 8.65461 3175 ft 228 kts 352°
2026-04-21 19:49 56.97901 8.65029 3067 ft 228 kts 356°
2026-04-21 19:49 56.98977 8.64802 2907 ft 230 kts 356°
2026-04-21 19:49 57.00527 8.64559 2726 ft 219 kts 359°
2026-04-21 19:50 57.02050 8.64433 2302 ft 220 kts 360°
2026-04-21 19:50 57.03563 8.64299 1896 ft 217 kts 359°
2026-04-21 19:50 57.05038 8.64134 1462 ft 207 kts 358°
2026-04-21 19:50 57.06407 8.63932 1331 ft 185 kts 356°
2026-04-21 19:51 57.07622 8.64234 1163 ft 166 kts 46°
2026-04-21 19:51 57.07676 8.65987 1180 ft 138 kts 127°
2026-04-21 19:51 57.07145 8.67208 900 ft 113 kts 105°
2026-04-21 19:51 57.07060 8.68590 133 ft 104 kts 92°
2026-04-21 19:52 57.06951 8.69719 26 ft 68 kts 98°
2026-04-21 19:52 57.06918 8.70213 24 ft 15 kts 85°
2026-04-21 19:52 57.06894 8.70204 24 ft 13 kts 286°
2026-04-21 19:52 57.06922 8.70018 24 ft 17 kts 283°
2026-04-21 19:53 57.06948 8.69795 25 ft 19 kts 280°
2026-04-21 19:53 57.06972 8.69541 26 ft 21 kts 280°
2026-04-21 19:53 57.07034 8.69366 24 ft 17 kts
2026-04-21 19:53 57.07142 8.69412 22 ft 15 kts 13°
2026-04-21 19:54 57.07211 8.69503 24 ft 12 kts 86°
2026-04-21 19:54 57.07218 8.69543 24 ft 4 kts 348°
2026-04-21 19:54 57.07218 8.69522 24 ft 0 kts 203°